map of BFV home
BFV - Airport
Location
City:  Buri Ram, Buri Ram, Thailand
ICAO:VTUO
IATA:BFV

Details
Type:Airport (Aerodrome, Airfield)
Latitude:1513'46"N (15.229539)
Longitude:10315'12"E (103.253231)
Datum:WGS 1984
Elevation:590 ft (180 m)
Variation:0.74W (WMM2015 magnetic declination)
-0.01 annual change
Runways:1
Longest:6890 × 148 ft (2100 × 45 m), paved

Time
Time Zone:UTC+7
Local Time:

Weather
METAR:VTUO 211300Z VRB02KT 6000 SCT025 31/25 Q1008 A2978 NOSIG
TAF:VTUO 211700Z 2118/2218 20005KT 7000 FEW025
BECMG 2120/2122 4000 BR
BECMG 2201/2203 7000 NSW

Related Locations
Nearby:
Farthest:SJA: 12341 mi / 19861 km
San Juan de Marcona [San Juan de Marcona Airport], ICA, PE

Find:

   beyond  
but within

Other Information
Maps:
NOTAMs:
Links:
Sources:

  
flag of Thailand   

Sectional Chart

Flight Planning
at skyvector.com

Satellite Image

Google Maps Satellite view

 

Copyright © 2004-2018 Karl L. Swartz. All rights reserved.
The Great Circle Mapper name and logo are trademarks of the Great Circle Mapper.
All other trademarks mentioned herein belong to their respective owners.
Please see credits for attibutions and further copyright information.

  Follow gcmap on Facebook Follow gcmap on Twitter Follow gcmap on Google+ GCmap on LinkedIn

hCard Microformat

Geo Microformat